[[{"header":{"parameterUnit":"m.s-1","parameterCategory":1,"la1":30.2991,"la2":30.254,"lo1":-89.0895,"lo2":-89.0444,"dy":0.0017,"dx":0.0017,"nx":28,"ny":28,"refTime":"2023-10-27T09:00:00:Z","depth":0,"parameterNumber":2,"parameterNumberName":"U-component_of_WINDS"},"data":[0,0,0,0,0,0,0,0,0,0,0,0,0,0,0,0,0,0,0,0,0,0,0,0,0,0,0,0,0,0,0,0,0,0,0,0,0,0,0,0,0,0,0,0,0,0,0,0,0,0,0,0,0,0,0,0,0,0,-3.1382,-3.1382,0,-3.1384,-3.1384,-3.1384,-3.1264,-3.1261,-3.1257,-3.1254,-3.1258,-3.1261,-3.1264,0,0,0,0,0,0,0,0,0,0,0,0,0,-3.1276,-3.1278,-3.1382,-3.1382,-3.1382,-3.1384,-3.1384,-3.1384,-3.1264,-3.126,-3.1257,-3.1253,-3.1257,-3.126,-3.1264,0,0,0,0,0,0,0,0,0,0,0,0,0,-3.1304,-3.1279,-3.1382,-3.1322,-3.1317,-3.1384,-3.1384,-3.1384,-3.1265,-3.126,-3.1256,-3.1251,-3.1255,-3.126,-3.1264,-3.1388,0,0,-3.1278,-3.128,0,0,0,0,0,0,0,0,-3.1303,-3.1308,-3.1331,-3.1327,-3.1321,-3.1318,-3.1347,-3.1385,-3.1266,-3.1285,-3.1254,-3.1249,-3.1282,-3.1284,-3.1295,-3.1388,-3.1389,-3.1279,-3.1282,-3.1284,-3.1285,0,0,0,0,0,0,0,-3.1301,-3.1307,-3.1382,-3.1332,-3.1325,-3.1296,-3.1295,-3.1354,-3.131,-3.1283,-3.1274,-3.1276,-3.1278,-3.1291,-3.1294,-3.1389,-3.1279,-3.1283,-3.1286,-3.1287,-3.1584,-3.1589,0,0,0,0,0,0,-3.1307,-3.1307,-3.1382,-3.1382,-3.13,-3.1302,-3.13,-3.1324,-3.1309,-3.1302,-3.128,-3.127,-3.1285,-3.1289,-3.1294,-3.1438,-3.1284,-3.1288,-3.129,-3.1579,-3.1585,-3.1591,0,0,0,0,0,0,-3.1305,-3.1315,-3.1382,-3.1342,-3.1349,-3.1309,-3.1336,-3.1327,-3.1339,-3.1307,-3.1299,-3.1301,-3.1282,-3.1287,-3.1366,-3.1436,-3.129,-3.1294,-3.1573,-3.1581,-3.1588,-3.1728,0,0,0,0,0,0,-3.1303,-3.1315,-3.1361,-3.1344,-3.1351,-3.1454,-3.1341,-3.133,-3.1347,-3.1335,-3.1324,-3.1318,-3.1278,-3.1359,-3.137,-3.144,-3.1298,-3.1567,-3.1577,-3.1586,-3.1716,-3.1739,-3.1758,0,0,0,0,0,-3.1299,-3.1401,-3.1364,-3.1374,-3.1408,-3.1459,-3.1463,-3.1414,-3.1353,-3.14,-3.1379,-3.1318,-3.1427,-3.1369,-3.138,-3.1452,-3.1562,-3.1574,-3.1585,-3.1707,-3.1735,-3.1758,0,0,0,0,0,0,-3.1427,-3.1397,-3.1356,-3.1455,-3.1461,-3.1438,-3.1495,-3.1445,-3.1468,-3.1455,-3.1395,-3.1393,-3.1482,-3.1474,-3.141,-3.1571,-3.1484,-3.1498,-3.1573,-3.1599,-3.1619,-3.1619,-3.1301,0,0,0,0,0,-3.1467,-3.151,-3.1481,-3.1571,-3.1576,-3.1536,-3.1556,-3.1518,-3.1521,-3.1523,-3.1508,-3.1514,-3.1548,-3.1573,-3.1604,-3.1715,-3.1711,-3.177,-3.1791,-3.1808,-3.1822,-3.188,-3.1906,-3.1629,-3.1629,-3.1629,0,0,-3.1549,-3.1538,-3.1569,-3.1597,-3.1596,-3.1643,-3.1538,-3.1592,-3.1626,-3.1531,-3.1604,-3.1594,-3.1596,-3.1691,-3.1733,-3.1688,-3.1897,-3.1823,-3.1837,-3.1841,-3.1895,-3.1921,-3.1944,-3.1637,-3.1635,-3.1634,0,0,-3.1723,-3.1719,-3.1794,-3.1796,-3.1796,-3.1769,-3.1787,-3.1773,-3.1762,-3.1834,-3.1764,-3.1804,-3.1866,-3.187,-3.1881,-3.2057,-3.2002,-3.2069,-3.2179,-3.2237,-3.2258,-3.2277,-3.2341,-3.2364,-3.2082,-3.2083,-3.2083,0,-3.1826,-3.1893,-3.1839,-3.1897,-3.1911,-3.1828,-3.1903,-3.1907,-3.1919,-3.1931,-3.188,-3.1956,-3.1952,-3.2048,-3.2091,-3.2102,-3.2121,-3.207,-3.226,-3.2278,-3.2295,-3.2355,-3.2379,-3.2091,-3.209,-3.2089,-3.2088,0,-3.2019,-3.2066,-3.2127,-3.2139,-3.216,-3.2227,-3.2184,-3.2212,-3.2173,-3.2151,-3.2226,-3.2218,-3.2245,-3.2265,-3.2227,-3.2356,-3.2328,-3.227,-3.2181,-3.2331,-3.2386,-3.2408,-3.2102,-3.2099,-3.2097,-3.2095,0,0,-3.2273,-3.2255,-3.2278,-3.2283,-3.2278,-3.2314,-3.2377,-3.2404,-3.2429,-3.244,-3.2491,-3.2546,-3.2492,-3.2504,-3.2466,-3.2517,-3.2658,-3.2452,-3.2451,-3.2491,-3.2799,-3.2843,-3.2871,-3.2622,-3.2626,-3.2629,-3.2799,0,-3.2442,-3.2548,-3.2502,-3.2613,-3.2656,-3.2578,-3.2633,-3.2636,-3.2618,-3.2652,-3.2632,-3.2671,-3.2597,-3.2604,-3.2651,-3.2631,-3.2719,-3.2618,-3.267,-3.2672,-3.2672,-3.2899,-3.2946,-3.3107,-3.282,-3.2824,-3.2827,0,-3.2652,-3.2672,-3.2788,-3.2775,-3.2792,-3.2842,-3.2863,-3.2897,-3.2899,-3.2882,-3.2896,-3.2847,-3.2908,-3.282,-3.2904,-3.2837,-3.2855,-3.2849,-3.2854,-3.2856,-3.2759,-3.2909,-3.3157,-3.3182,-3.286,-3.2857,-3.2855,0,-3.2827,-3.2882,-3.2958,-3.2964,-3.2952,-3.2989,-3.2986,-3.2983,-3.3002,-3.3021,-3.3033,-3.3059,-3.3073,-3.3095,-3.3054,-3.2993,-3.3144,-3.3052,-3.3132,-3.3133,-3.3167,-3.3166,-3.3422,-3.318,-3.3179,-3.3179,-3.3178,0,-3.302,-3.3094,-3.3036,-3.3083,-3.3164,-3.311,-3.3192,-3.318,-3.3178,-3.3222,-3.3156,-3.3198,-3.3142,-3.3179,-3.3148,-3.3223,-3.323,-3.3218,-3.3209,-3.3224,-3.3225,-3.3235,-3.3223,-3.3185,-3.3184,-3.3182,-3.3181,0,-3.3227,-3.3192,-3.327,-3.3252,-3.3249,-3.3309,-3.3294,-3.3337,-3.3314,-3.337,-3.338,-3.3345,-3.3385,-3.3347,-3.3385,-3.3364,-3.3464,-3.3438,-3.3463,-3.3456,-3.3538,-3.3531,-3.381,-3.3844,-3.358,-3.3582,-3.3584,0,-3.3353,-3.3408,-3.3396,-3.342,-3.3421,-3.3461,-3.348,-3.343,-3.3453,-3.3461,-3.3503,-3.3538,-3.3563,-3.3632,-3.3609,-3.3638,-3.3613,-3.3709,-3.3617,-3.3631,-3.3615,-3.3612,-3.3617,-3.3728,-3.3731,-3.3733,-3.3735,0,-3.3579,-3.3559,-3.3589,-3.3614,-3.3639,-3.3657,-3.3669,-3.3693,-3.3641,-3.367,-3.3711,-3.3731,-3.377,-3.3806,-3.3828,-3.3824,-3.3772,-3.3765,-3.3785,-3.3801,-3.3813,-3.3807,-3.3514,-3.3758,-3.3756,-3.3754,-3.3753,-3.3752,-3.3749,-3.3795,-3.3794,-3.383,-3.3834,-3.3847,-3.3887,-3.3869,-3.3902,-3.393,-3.3898,-3.3948,-3.395,-3.3974,-3.3977,-3.4016,-3.3976,-3.4005,-3.4012,-3.402,-3.4032,-3.3807,-3.402,-3.4019,-3.4018,-3.4018,-3.4017,0,-3.3972,-3.3968,-3.4002,-3.4021,-3.405,-3.3998,-3.4009,-3.4037,-3.4081,-3.4087,-3.4113,-3.416,-3.4195,-3.4176,-3.4206,-3.424,-3.4217,-3.425,-3.4247,-3.4247,-3.4066,-3.4046,-3.4268,-3.4268,-3.4268,-3.4268,-3.4268,-3.4268,-3.4091,-3.4166,-3.4146,-3.4222,-3.4217,-3.4265,-3.4276,-3.4288,-3.4292,-3.4348,-3.4376,-3.4363,-3.4359,-3.4388,-3.4418,-3.4411,-3.4426,-3.4467,-3.4453,-3.4284,-3.4259,-3.4236,-3.4216,-3.4471,-3.4471,-3.4629,-3.4631,-3.4632]},{"header":{"parameterUnit":"m.s-1","parameterCategory":1,"la1":30.2991,"la2":30.254,"lo1":-89.0895,"lo2":-89.0444,"dy":0.0017,"dx":0.0017,"nx":28,"ny":28,"refTime":"2023-10-27T09:00:00:Z","depth":0,"parameterNumber":3,"parameterNumberName":"V-component_of_WINDS"},"data":[0,0,0,0,0,0,0,0,0,0,0,0,0,0,0,0,0,0,0,0,0,0,0,0,0,0,0,0,0,0,0,0,0,0,0,0,0,0,0,0,0,0,0,0,0,0,0,0,0,0,0,0,0,0,0,0,0,0,-0.9754,-0.9755,0,-0.9805,-0.9805,-0.9806,-0.9858,-0.9858,-0.9859,-0.986,-0.991,-0.991,-0.9911,0,0,0,0,0,0,0,0,0,0,0,0,0,-0.97,-0.9701,-0.9754,-0.9755,-0.9755,-0.9804,-0.9805,-0.9806,-0.9858,-0.9858,-0.9859,-0.986,-0.991,-0.991,-0.9911,0,0,0,0,0,0,0,0,0,0,0,0,0,-0.9734,-0.9701,-0.9754,-0.9787,-0.9791,-0.9804,-0.9805,-0.9806,-0.9857,-0.9858,-0.986,-0.9861,-0.9909,-0.991,-0.9911,-0.9896,0,0,-0.9914,-0.9915,0,0,0,0,0,0,0,0,-0.9732,-0.9736,-0.9782,-0.9785,-0.9789,-0.9826,-0.9805,-0.9836,-0.9857,-0.9832,-0.986,-0.9861,-0.9881,-0.9884,-0.9891,-0.9898,-0.99,-0.9914,-0.9915,-0.9915,-0.9916,0,0,0,0,0,0,0,-0.973,-0.9734,-0.9774,-0.9782,-0.9787,-0.9799,-0.9805,-0.9811,-0.985,-0.9834,-0.9838,-0.9843,-0.9883,-0.989,-0.9893,-0.9901,-0.9914,-0.9915,-0.9916,-0.9916,-0.9895,-0.9894,0,0,0,0,0,0,-0.9723,-0.9732,-0.9772,-0.9776,-0.9763,-0.9799,-0.9806,-0.9813,-0.985,-0.9857,-0.9843,-0.9846,-0.9888,-0.9892,-0.9895,-0.9877,-0.9915,-0.9916,-0.9917,-0.9896,-0.9894,-0.9893,0,0,0,0,0,0,-0.9721,-0.9726,-0.977,-0.9755,-0.9761,-0.9799,-0.9806,-0.9813,-0.9821,-0.9856,-0.9863,-0.9843,-0.9889,-0.9894,-0.9895,-0.9879,-0.9917,-0.9918,-0.9897,-0.9895,-0.9894,-0.9842,0,0,0,0,0,0,-0.972,-0.9725,-0.972,-0.9754,-0.9762,-0.977,-0.9806,-0.9814,-0.9822,-0.9827,-0.9858,-0.9864,-0.989,-0.9893,-0.9896,-0.9881,-0.9919,-0.9899,-0.9896,-0.9894,-0.9845,-0.9839,-0.9833,0,0,0,0,0,-0.9717,-0.9704,-0.972,-0.9724,-0.9757,-0.9769,-0.9773,-0.9804,-0.9821,-0.9816,-0.9838,-0.9863,-0.9881,-0.9893,-0.9896,-0.9882,-0.99,-0.9897,-0.9895,-0.9848,-0.984,-0.9833,0,0,0,0,0,0,-0.9667,-0.9709,-0.9727,-0.9725,-0.9743,-0.9778,-0.9772,-0.9795,-0.9808,-0.9812,-0.9849,-0.9855,-0.9851,-0.9868,-0.988,-0.9867,-0.9894,-0.9892,-0.9857,-0.985,-0.9844,-0.9839,-0.9919,0,0,0,0,0,-0.9656,-0.9663,-0.9699,-0.9693,-0.9701,-0.9735,-0.9741,-0.9763,-0.9783,-0.9791,-0.9814,-0.9832,-0.9842,-0.9847,-0.9858,-0.9848,-0.9854,-0.984,-0.9834,-0.9829,-0.9826,-0.9819,-0.9812,-0.9885,-0.9885,-0.9885,0,0,-0.9632,-0.9656,-0.9658,-0.9683,-0.97,-0.9705,-0.9741,-0.9746,-0.9749,-0.9792,-0.9794,-0.9811,-0.9833,-0.9828,-0.9827,-0.9841,-0.9807,-0.9826,-0.9821,-0.9821,-0.9816,-0.9809,-0.9802,-0.9883,-0.9883,-0.9883,0,0,-0.9591,-0.9611,-0.9607,-0.9623,-0.9648,-0.967,-0.9669,-0.97,-0.9713,-0.9716,-0.9747,-0.9752,-0.9768,-0.9782,-0.9791,-0.9753,-0.9776,-0.9756,-0.9723,-0.9716,-0.971,-0.9705,-0.9689,-0.9683,-0.9753,-0.9753,-0.9753,0,-0.9559,-0.9568,-0.9602,-0.9604,-0.9613,-0.9652,-0.9647,-0.966,-0.9687,-0.9692,-0.9708,-0.9727,-0.9745,-0.9742,-0.9733,-0.974,-0.9738,-0.9751,-0.9709,-0.9704,-0.97,-0.9685,-0.9679,-0.975,-0.9751,-0.9751,-0.9751,0,-0.9525,-0.9531,-0.9525,-0.9549,-0.9558,-0.9556,-0.9588,-0.9593,-0.9613,-0.9634,-0.9634,-0.9657,-0.9672,-0.9674,-0.9695,-0.9673,-0.968,-0.9702,-0.9729,-0.9689,-0.9676,-0.967,-0.9746,-0.9747,-0.9748,-0.9749,0,0,-0.9454,-0.9496,-0.9493,-0.9503,-0.9532,-0.9537,-0.9536,-0.9551,-0.9553,-0.957,-0.9569,-0.9581,-0.96,-0.961,-0.9633,-0.9627,-0.9592,-0.9649,-0.965,-0.9635,-0.9566,-0.9547,-0.954,-0.9608,-0.9607,-0.9606,-0.9563,0,-0.9416,-0.9417,-0.9447,-0.9439,-0.9443,-0.948,-0.9479,-0.9496,-0.9515,-0.952,-0.9541,-0.9547,-0.9574,-0.958,-0.9576,-0.9597,-0.9578,-0.9601,-0.9605,-0.9604,-0.9595,-0.9534,-0.9515,-0.9473,-0.9558,-0.9557,-0.9557,0,-0.9372,-0.9385,-0.9378,-0.9405,-0.9408,-0.9407,-0.9421,-0.9427,-0.9446,-0.946,-0.947,-0.9496,-0.9495,-0.9522,-0.9521,-0.9535,-0.9539,-0.9549,-0.9548,-0.9548,-0.9576,-0.9529,-0.9461,-0.9453,-0.9549,-0.955,-0.955,0,-0.9316,-0.9333,-0.933,-0.9338,-0.9371,-0.9368,-0.9382,-0.9403,-0.9409,-0.9421,-0.9425,-0.9437,-0.9443,-0.9452,-0.9479,-0.9497,-0.9473,-0.9503,-0.9483,-0.9482,-0.9474,-0.9474,-0.9403,-0.9481,-0.9481,-0.9481,-0.9481,0,-0.927,-0.9263,-0.9305,-0.9303,-0.9295,-0.9329,-0.9321,-0.9338,-0.9356,-0.9356,-0.939,-0.9389,-0.9426,-0.943,-0.9451,-0.9445,-0.9448,-0.9458,-0.9463,-0.9453,-0.9451,-0.9454,-0.9456,-0.948,-0.948,-0.948,-0.9481,0,-0.9206,-0.9234,-0.9233,-0.9263,-0.9271,-0.9264,-0.929,-0.9288,-0.9309,-0.9309,-0.931,-0.9342,-0.9348,-0.9376,-0.9389,-0.9403,-0.9388,-0.9401,-0.9381,-0.9384,-0.936,-0.9361,-0.9286,-0.9277,-0.9364,-0.9363,-0.9362,0,-0.9173,-0.9168,-0.9198,-0.92,-0.9212,-0.9217,-0.9222,-0.9255,-0.926,-0.928,-0.9276,-0.9284,-0.9292,-0.9299,-0.9322,-0.9331,-0.9342,-0.9315,-0.9344,-0.9333,-0.9338,-0.9336,-0.9335,-0.9308,-0.9307,-0.9306,-0.9306,0,-0.9109,-0.9123,-0.9131,-0.9142,-0.9148,-0.9159,-0.9172,-0.9172,-0.9208,-0.9211,-0.9217,-0.9223,-0.9235,-0.9242,-0.9255,-0.9268,-0.9291,-0.9297,-0.9292,-0.928,-0.9268,-0.9271,-0.9361,-0.9298,-0.9299,-0.9299,-0.93,-0.93,-0.9058,-0.9054,-0.9074,-0.908,-0.9093,-0.9104,-0.9103,-0.9123,-0.9128,-0.914,-0.916,-0.9162,-0.918,-0.9199,-0.921,-0.9211,-0.9225,-0.9219,-0.9217,-0.9214,-0.9207,-0.927,-0.9214,-0.9214,-0.9214,-0.9215,-0.9215,0,-0.8994,-0.9008,-0.9014,-0.903,-0.9034,-0.9058,-0.9072,-0.9074,-0.9076,-0.909,-0.9097,-0.9102,-0.9109,-0.9132,-0.914,-0.9137,-0.9148,-0.9137,-0.9136,-0.9138,-0.9196,-0.9198,-0.9128,-0.9128,-0.9128,-0.9128,-0.9128,-0.9128,-0.8961,-0.8955,-0.8971,-0.8971,-0.8985,-0.8987,-0.8993,-0.9002,-0.9014,-0.9018,-0.9023,-0.9039,-0.9056,-0.9066,-0.9072,-0.9078,-0.9078,-0.9064,-0.9074,-0.9126,-0.9135,-0.9143,-0.9144,-0.9064,-0.9064,-0.9015,-0.9015,-0.9015]}]]